Volver al catálogo

CZ-4C DEB

ActivoLEO
NORAD 40342·DEBRIS·🇨🇳 China

Lanzado Dec 10, 2014 desde Jiuquan Satellite Launch Center

Loading…

Próximos Pases (próximas 24 horas)

TLE

ActualizadoSource: Space-Track

Época: Sep 14, 2026, 00:52 UTC

1 40342U 14080E   26257.03653243  .00000008  00000-0  10791-3 0  9993
2 40342  63.3858 103.7818 0385122  10.7457 350.1507 13.44669782577225

Sigue CZ-4C DEB en tiempo real con AllMySat

Download on the App Store